TimeCDT,TemperatureF,Dew PointF,Humidity,Sea Level PressureIn,VisibilityMPH,Wind Direction,Wind SpeedMPH,Gust SpeedMPH,PrecipitationIn,Events,Conditions,WindDirDegrees,DateUTC
12:53 AM,59.0,55.0,87,30.22,10.0,Calm,Calm,-,N/A,,Scattered Clouds,0,2012-10-12 05:53:00
1:53 AM,59.0,55.0,87,30.22,10.0,Calm,Calm,-,N/A,,Mostly Cloudy,0,2012-10-12 06:53:00
2:53 AM,57.9,54.0,87,30.21,9.0,Calm,Calm,-,N/A,,Mostly Cloudy,0,2012-10-12 07:53:00
3:53 AM,57.0,54.0,89,30.19,7.0,Calm,Calm,-,N/A,,Partly Cloudy,0,2012-10-12 08:53:00
4:53 AM,57.0,54.0,89,30.19,7.0,Calm,Calm,-,N/A,,Clear,0,2012-10-12 09:53:00
5:53 AM,57.0,54.0,89,30.22,7.0,Calm,Calm,-,N/A,,Clear,0,2012-10-12 10:53:00
6:53 AM,61.0,57.0,87,30.24,8.0,NE,3.5,-,N/A,,Overcast,50,2012-10-12 11:53:00
7:53 AM,63.0,57.9,84,30.28,8.0,East,5.8,-,N/A,,Overcast,80,2012-10-12 12:53:00
8:53 AM,64.9,59.0,81,30.29,10.0,ESE,3.5,-,N/A,,Overcast,120,2012-10-12 13:53:00
9:03 AM,66.2,59.0,78,30.30,10.0,SE,6.9,-,N/A,,Overcast,140,2012-10-12 14:03:00
9:11 AM,66.2,60.8,83,30.30,10.0,SSE,6.9,-,N/A,,Overcast,160,2012-10-12 14:11:00
9:53 AM,66.9,60.1,79,30.30,10.0,East,3.5,-,N/A,,Overcast,80,2012-10-12 14:53:00
11:53 AM,66.9,61.0,81,30.31,10.0,Calm,Calm,-,N/A,,Overcast,0,2012-10-12 16:53:00
12:53 PM,69.1,62.1,78,30.29,10.0,Calm,Calm,-,N/A,,Overcast,0,2012-10-12 17:53:00
1:28 PM,69.8,62.6,78,30.28,10.0,South,5.8,-,N/A,,Overcast,190,2012-10-12 18:28:00
1:53 PM,70.0,61.0,73,30.27,10.0,Calm,Calm,-,N/A,,Overcast,0,2012-10-12 18:53:00
2:53 PM,73.0,62.1,68,30.24,10.0,SSW,3.5,-,N/A,,Mostly Cloudy,210,2012-10-12 19:53:00
3:53 PM,75.0,63.0,66,30.22,10.0,SSW,4.6,-,N/A,,Mostly Cloudy,200,2012-10-12 20:53:00
4:53 PM,75.9,63.0,64,30.23,10.0,NNW,3.5,-,N/A,,Scattered Clouds,340,2012-10-12 21:53:00
5:53 PM,73.0,64.0,73,30.23,10.0,Calm,Calm,-,N/A,,Mostly Cloudy,0,2012-10-12 22:53:00
6:20 PM,71.6,64.4,78,30.23,10.0,Calm,Calm,-,N/A,,Mostly Cloudy,0,2012-10-12 23:20:00
6:53 PM,71.1,64.0,78,30.23,10.0,NE,4.6,-,N/A,,Overcast,50,2012-10-12 23:53:00
7:53 PM,69.1,64.9,87,30.24,9.0,ENE,3.5,-,N/A,,Scattered Clouds,60,2012-10-13 00:53:00
9:11 PM,66.2,64.4,94,30.26,7.0,East,3.5,-,N/A,,Scattered Clouds,80,2012-10-13 02:11:00
9:23 PM,68.0,64.4,88,30.26,7.0,ENE,3.5,-,N/A,,Mostly Cloudy,70,2012-10-13 02:23:00
9:53 PM,68.0,64.0,87,30.26,7.0,East,5.8,-,N/A,,Overcast,90,2012-10-13 02:53:00
10:53 PM,66.9,63.0,87,30.25,9.0,East,5.8,-,N/A,,Overcast,80,2012-10-13 03:53:00
11:53 PM,66.0,63.0,90,30.25,8.0,SE,4.6,-,N/A,,Overcast,140,2012-10-13 04:53:00